User: anonymous   Login
Location: Unspecified
(0.0000°N, 0.0000°E)
Time: 22:27:15
(UTC+01:00)
Language:

Cosmos 1933 - Orbit

View from above orbital plane
View from above orbital plane
View from above satellite
View from above satellite

Ground track
Ground track

The orbit data is extracted from the following two-line orbital elements,

1 18958U 88020A   14328.10780303  .00003218  00000-0  24856-3 0  4862
2 18958 082.5313 286.1509 0011181 216.3354 143.7113 15.01199913450965
Epoch (UTC): 24 November 2014 02:35:14
Eccentricity: 0.0011181
inclination: 82.5313°
perigee height: 555 km
apogee height: 571 km
right ascension of ascending node: 286.1509°
argument of perigee: 216.3354°
revolutions per day: 15.01199913
mean anomaly at epoch: 143.7113°
orbit number at epoch: 45096

The dashed part of the orbit path shows where the satellite is in the earth's shadow,  

DLR